User: anonymous   Login
Location: Unspecified
(0.0000°N, 0.0000°E)
Time: 11:33:54
(UTC+00:00)
Language:

EGRS 3 - Orbit

View from above orbital plane
View from above orbital plane
View from above satellite
View from above satellite

Ground track
Ground track

The orbit data is extracted from the following two-line orbital elements,

1 01208U 65016E   18019.12607497 -.00000012  00000-0  29892-4 0  9992
2 01208  70.0778 241.3013 0019700 170.7586 335.7761 13.95552718691113
Epoch (UTC): 19 January 2018 03:01:32
Eccentricity: 0.0019700
inclination: 70.0778°
perigee height: 895 km
apogee height: 923 km
right ascension of ascending node: 241.3013°
argument of perigee: 170.7586°
revolutions per day: 13.95552718
mean anomaly at epoch: 335.7761°
orbit number at epoch: 69111

The dashed part of the orbit path shows where the satellite is in the earth's shadow,  

DLR